STARLINK-34584, 64697

Orbit data source: Space-Track

STARLINK-34584, 64697 is a payload satellite owned by SpaceX/Seattle (US) in LEO that was launched on Sat, 28 Jun 2025 UTC via an FALCON 9 launch vehicle from the Air Force Western Test Range (AFWTR). Payload-class satellites include a variety of spacecraft equipped with specific instruments for various scientific and technological missions. These include communications satellites like Starlink; space stations such as the ISS; scientific satellites like the Hubble; Earth observation satellites from companies like Planet Labs, Umbra, and HawkEye 360; GPS; miniature CubeSats for education and research; and military/defense satellites.

Loading next visibility...
Identifier
64697, 2025-142B
Orbit
LEO
Country
Flag of USUS
Related business
Manufacturer
SpaceX/Seattle
Mission
Operational Commercial Communications
Bus & Motor
STARLINK V2MO, Unknown motor
Mass
575 kg wet, ~530 kg dry
Launch date (UTC)
2025-06-28 (1 year ago)
Launch vehicle
FALCON 9
Launch site
Air Force Western Test Range (AFWTR)
Object type
Payload
Rocket body
Debris
Shape & HBR
Box + 2 Pan, 17.7 m
Radar Cross Section
36.964 m², Large (>1 m²)

Expand to show TLE details & history
Last TLE update: 6 hours ago

TLE from 6 hours ago
0 STARLINK-34584
1 64697U 25142B   26207.61247145  .00005352  00000-0  45583-3 0  9996
2 64697  70.0019 324.0360 0003280 267.5605  92.5178 14.98341352 60292
Epoch: 2026-07-26T14:41Z
TLE epoch observation values (Epoch: 2026-07-26T14:41:57.533Z)
Latitude
-0.00007°
Longitude
159.23836°
Altitude
574.546 km
Speed
7.574 km/s
True Right ascension
21h 36m 08s
True Declination
0° 00' 00"
Sunlit
Object was in full shadow at epoch
Visualization orbit readout
Latitude
Unknown
Longitude
Unknown
Altitude
Unknown
Speed
Unknown
Apparent Right ascension
Unknown
Apparent Declination
Unknown
Sunlit
N/A
Visualization observer readout
Local Sidereal Time
09:48:37
Azimuth
Unknown
Elevation
Unknown
Doppler factor
Unknown
Orbital elements
Apogee altitude
572.248 km
Perigee altitude
567.69 km
Semi-major axis
6,948.106 km
Eccentricity
0.00033
Inclination
70.0019°
RAAN
324.036°
Arg. of periapsis
267.5605°
True anomaly
92.55535°
Mean anomaly
92.5178°
Eccentric anomaly
92.53657°
Mean motion
3.74752 °/min
Orbital period
96.06 mins
BSTAR
0.00045583
Loading maneuver chart data...
Computing Atmospheric mass density...
Loading historical data...
Loading historical data...
Loading historical data...
Loading historical data...
Loading historical data...
Loading historical data...
Loading historical data...

Documentation

Showing up to 5 results
|